Time,TemperatureF,DewpointF,PressureIn,WindDirection,WindDirectionDegrees,WindSpeedMPH,WindSpeedGustMPH,Humidity,HourlyPrecipIn,Conditions,Clouds,dailyrainin,SoftwareType,DateUTC
2013-05-28 00:01:00,57.0,53.2,30.20,SE,144,0.0,3.0,87,0.00,,,0.00,Wunderground v.1.15,2013-05-28 04:01:00,
2013-05-28 00:03:00,57.0,53.2,30.20,SE,144,0.0,3.0,87,0.00,,,0.00,Wunderground v.1.15,2013-05-28 04:03:00,
2013-05-28 00:08:00,56.9,53.1,30.20,SE,144,0.0,3.0,87,0.00,,,0.00,Wunderground v.1.15,2013-05-28 04:08:00,
2013-05-28 00:12:00,56.9,53.1,30.19,SE,144,0.0,3.0,87,0.00,,,0.00,Wunderground v.1.15,2013-05-28 04:12:00,
2013-05-28 00:14:00,56.9,53.1,30.20,SE,144,0.0,3.0,87,0.00,,,0.00,Wunderground v.1.15,2013-05-28 04:14:00,
2013-05-28 00:19:00,56.9,53.7,30.20,SE,144,0.0,3.0,89,0.00,,,0.00,Wunderground v.1.15,2013-05-28 04:19:00,
2013-05-28 00:25:00,56.7,53.5,30.20,SE,144,0.0,3.0,89,0.00,,,0.00,Wunderground v.1.15,2013-05-28 04:25:00,
2013-05-28 00:32:00,56.6,53.7,30.21,SE,144,0.0,3.0,90,0.00,,,0.00,Wunderground v.1.15,2013-05-28 04:32:00,
2013-05-28 00:38:00,56.5,53.6,30.20,SE,144,0.0,3.0,90,0.00,,,0.00,Wunderground v.1.15,2013-05-28 04:38:00,
2013-05-28 00:44:00,56.4,53.5,30.21,SE,144,0.0,3.0,90,0.00,,,0.00,Wunderground v.1.15,2013-05-28 04:44:00,
2013-05-28 00:49:00,56.3,53.4,30.20,SE,144,0.0,3.0,90,0.00,,,0.00,Wunderground v.1.15,2013-05-28 04:49:00,
2013-05-28 00:56:00,56.2,53.3,30.21,SE,144,0.0,3.0,90,0.00,,,0.00,Wunderground v.1.15,2013-05-28 04:56:00,
2013-05-28 01:02:00,56.1,53.2,30.21,SE,144,0.0,3.0,90,0.00,,,0.00,Wunderground v.1.15,2013-05-28 05:02:00,
2013-05-28 01:07:00,56.1,53.2,30.21,SE,144,0.0,3.0,90,0.00,,,0.00,Wunderground v.1.15,2013-05-28 05:07:00,
2013-05-28 01:14:00,56.0,53.1,30.20,SE,144,0.0,3.0,90,0.00,,,0.00,Wunderground v.1.15,2013-05-28 05:14:00,
2013-05-28 01:20:00,56.1,53.2,30.20,SE,144,0.0,3.0,90,0.00,,,0.00,Wunderground v.1.15,2013-05-28 05:20:00,
2013-05-28 01:26:00,56.1,53.2,30.19,SE,144,0.0,3.0,90,0.00,,,0.00,Wunderground v.1.15,2013-05-28 05:26:00,
2013-05-28 01:31:00,56.1,53.2,30.19,SE,144,0.0,3.0,90,0.00,,,0.00,Wunderground v.1.15,2013-05-28 05:31:00,
2013-05-28 01:38:00,56.2,53.3,30.19,SE,144,0.0,3.0,90,0.00,,,0.00,Wunderground v.1.15,2013-05-28 05:38:00,
2013-05-28 01:44:00,56.2,53.3,30.19,SE,144,0.0,3.0,90,0.00,,,0.00,Wunderground v.1.15,2013-05-28 05:44:00,
2013-05-28 01:50:00,56.2,53.3,30.20,SE,144,0.0,3.0,90,0.00,,,0.00,Wunderground v.1.15,2013-05-28 05:50:00,
2013-05-28 01:55:00,56.2,53.3,30.20,SE,144,0.0,3.0,90,0.00,,,0.00,Wunderground v.1.15,2013-05-28 05:55:00,
2013-05-28 02:02:00,56.1,53.2,30.20,SE,144,0.0,3.0,90,0.00,,,0.00,Wunderground v.1.15,2013-05-28 06:02:00,
2013-05-28 02:08:00,56.1,53.2,30.20,SE,144,0.0,3.0,90,0.00,,,0.00,Wunderground v.1.15,2013-05-28 06:08:00,
2013-05-28 02:14:00,56.2,53.3,30.19,SE,144,0.0,3.0,90,0.00,,,0.00,Wunderground v.1.15,2013-05-28 06:14:00,
2013-05-28 02:20:00,56.2,53.3,30.19,SE,144,0.0,3.0,90,0.00,,,0.00,Wunderground v.1.15,2013-05-28 06:20:00,
2013-05-28 02:26:00,56.2,53.3,30.19,SE,144,0.0,3.0,90,0.00,,,0.00,Wunderground v.1.15,2013-05-28 06:26:00,
2013-05-28 02:32:00,56.3,53.7,30.19,SE,144,0.0,3.0,91,0.00,,,0.00,Wunderground v.1.15,2013-05-28 06:32:00,
2013-05-28 02:38:00,56.3,53.7,30.18,SE,144,0.0,3.0,91,0.00,,,0.00,Wunderground v.1.15,2013-05-28 06:38:00,
2013-05-28 02:43:00,56.2,53.6,30.18,SE,144,0.0,3.0,91,0.00,,,0.00,Wunderground v.1.15,2013-05-28 06:43:00,
2013-05-28 02:50:00,56.1,53.5,30.18,SE,144,0.0,3.0,91,0.00,,,0.00,Wunderground v.1.15,2013-05-28 06:50:00,
2013-05-28 02:56:00,56.1,53.5,30.18,SE,144,0.0,3.0,91,0.00,,,0.00,Wunderground v.1.15,2013-05-28 06:56:00,
2013-05-28 03:02:00,56.0,53.4,30.17,SE,144,0.0,3.0,91,0.00,,,0.00,Wunderground v.1.15,2013-05-28 07:02:00,
2013-05-28 03:08:00,56.0,53.4,30.17,SE,144,0.0,3.0,91,0.00,,,0.00,Wunderground v.1.15,2013-05-28 07:08:00,
2013-05-28 03:14:00,55.9,53.3,30.17,SE,144,0.0,3.0,91,0.00,,,0.00,Wunderground v.1.15,2013-05-28 07:14:00,
2013-05-28 03:20:00,55.9,53.3,30.17,SE,144,0.0,3.0,91,0.00,,,0.00,Wunderground v.1.15,2013-05-28 07:20:00,
2013-05-28 03:25:00,55.9,53.3,30.17,SE,144,0.0,3.0,91,0.00,,,0.00,Wunderground v.1.15,2013-05-28 07:25:00,
2013-05-28 03:32:00,55.8,53.2,30.17,SE,144,0.0,3.0,91,0.00,,,0.00,Wunderground v.1.15,2013-05-28 07:32:00,
2013-05-28 03:38:00,55.7,53.4,30.17,SE,144,0.0,3.0,92,0.00,,,0.00,Wunderground v.1.15,2013-05-28 07:38:00,
2013-05-28 03:44:00,55.7,53.4,30.17,SE,144,0.0,3.0,92,0.00,,,0.00,Wunderground v.1.15,2013-05-28 07:44:00,
2013-05-28 03:49:00,55.6,53.3,30.17,SE,144,0.0,3.0,92,0.00,,,0.00,Wunderground v.1.15,2013-05-28 07:49:00,
2013-05-28 03:56:00,55.6,53.3,30.17,SE,144,0.0,3.0,92,0.00,,,0.00,Wunderground v.1.15,2013-05-28 07:56:00,
2013-05-28 04:02:00,55.5,53.5,30.17,SE,144,0.0,3.0,93,0.00,,,0.00,Wunderground v.1.15,2013-05-28 08:02:00,
2013-05-28 04:08:00,55.5,53.5,30.17,SE,144,0.0,3.0,93,0.00,,,0.00,Wunderground v.1.15,2013-05-28 08:08:00,
2013-05-28 04:13:00,55.5,53.5,30.17,SE,144,0.0,3.0,93,0.00,,,0.00,Wunderground v.1.15,2013-05-28 08:13:00,
2013-05-28 04:20:00,55.7,53.7,30.17,SE,144,0.0,3.0,93,0.00,,,0.00,Wunderground v.1.15,2013-05-28 08:20:00,
2013-05-28 04:26:00,55.8,53.8,30.17,SE,144,0.0,3.0,93,0.00,,,0.00,Wunderground v.1.15,2013-05-28 08:26:00,
2013-05-28 04:32:00,55.8,53.8,30.17,SE,144,0.0,3.0,93,0.00,,,0.00,Wunderground v.1.15,2013-05-28 08:32:00,
2013-05-28 04:37:00,55.8,53.8,30.17,SE,144,0.0,3.0,93,0.00,,,0.00,Wunderground v.1.15,2013-05-28 08:37:00,
2013-05-28 04:44:00,55.8,53.8,30.17,SE,144,0.0,3.0,93,0.00,,,0.01,Wunderground v.1.15,2013-05-28 08:44:00,
2013-05-28 04:50:00,55.8,53.8,30.17,SE,144,0.0,3.0,93,0.15,,,0.02,Wunderground v.1.15,2013-05-28 08:50:00,
2013-05-28 04:56:00,55.8,53.8,30.17,SE,144,0.0,3.0,93,0.10,,,0.03,Wunderground v.1.15,2013-05-28 08:56:00,
2013-05-28 05:01:00,55.9,54.2,30.17,SE,144,0.0,3.0,94,0.11,,,0.04,Wunderground v.1.15,2013-05-28 09:01:00,
2013-05-28 05:08:00,56.0,54.3,30.17,SE,144,0.0,3.0,94,0.07,,,0.05,Wunderground v.1.15,2013-05-28 09:08:00,
2013-05-28 05:14:00,56.0,54.6,30.17,SE,144,0.0,3.0,95,0.13,,,0.06,Wunderground v.1.15,2013-05-28 09:14:00,
2013-05-28 05:20:00,56.1,54.7,30.17,SE,144,0.0,3.0,95,0.06,,,0.06,Wunderground v.1.15,2013-05-28 09:20:00,
2013-05-28 05:25:00,56.1,54.7,30.17,SE,144,0.0,3.0,95,0.04,,,0.06,Wunderground v.1.15,2013-05-28 09:25:00,
2013-05-28 05:32:00,56.0,54.6,30.17,SE,144,0.0,3.0,95,0.00,,,0.06,Wunderground v.1.15,2013-05-28 09:32:00,
2013-05-28 05:38:00,56.0,54.6,30.17,SE,144,0.0,3.0,95,0.00,,,0.06,Wunderground v.1.15,2013-05-28 09:38:00,
2013-05-28 05:44:00,56.0,54.6,30.17,SE,144,0.0,3.0,95,0.00,,,0.06,Wunderground v.1.15,2013-05-28 09:44:00,
2013-05-28 05:49:00,56.0,54.9,30.17,SE,144,0.0,3.0,96,0.00,,,0.06,Wunderground v.1.15,2013-05-28 09:49:00,
2013-05-28 05:56:00,55.9,54.8,30.17,SE,144,0.0,3.0,96,0.00,,,0.06,Wunderground v.1.15,2013-05-28 09:56:00,
2013-05-28 06:02:00,55.9,54.8,30.17,SE,144,0.0,3.0,96,0.00,,,0.06,Wunderground v.1.15,2013-05-28 10:02:00,
2013-05-28 06:08:00,55.9,54.8,30.17,SE,140,0.0,3.0,96,0.00,,,0.06,Wunderground v.1.15,2013-05-28 10:08:00,
2013-05-28 06:13:00,55.8,54.7,30.17,SE,140,0.0,3.0,96,0.00,,,0.06,Wunderground v.1.15,2013-05-28 10:13:00,
2013-05-28 06:20:00,55.8,54.7,30.17,SE,140,0.0,3.0,96,0.00,,,0.06,Wunderground v.1.15,2013-05-28 10:20:00,
2013-05-28 06:26:00,55.8,54.7,30.17,SE,140,0.0,3.0,96,0.00,,,0.06,Wunderground v.1.15,2013-05-28 10:26:00,
2013-05-28 06:32:00,55.9,54.8,30.17,SE,138,0.0,3.0,96,0.00,,,0.06,Wunderground v.1.15,2013-05-28 10:32:00,
2013-05-28 06:37:00,56.0,54.9,30.17,SE,138,0.0,3.0,96,0.00,,,0.06,Wunderground v.1.15,2013-05-28 10:37:00,
2013-05-28 06:44:00,56.1,55.0,30.17,SE,135,0.0,3.0,96,0.00,,,0.06,Wunderground v.1.15,2013-05-28 10:44:00,
2013-05-28 06:50:00,56.2,55.4,30.17,SE,134,0.0,3.0,97,0.00,,,0.06,Wunderground v.1.15,2013-05-28 10:50:00,
2013-05-28 06:56:00,56.4,55.6,30.17,SE,135,0.0,3.0,97,0.00,,,0.06,Wunderground v.1.15,2013-05-28 10:56:00,
2013-05-28 07:01:00,56.6,55.8,30.17,SE,134,0.0,3.0,97,0.00,,,0.06,Wunderground v.1.15,2013-05-28 11:01:00,
2013-05-28 07:08:00,56.9,56.1,30.17,SE,134,0.0,3.0,97,0.00,,,0.06,Wunderground v.1.15,2013-05-28 11:08:00,
2013-05-28 07:14:00,57.0,56.2,30.17,SE,135,0.0,3.0,97,0.00,,,0.06,Wunderground v.1.15,2013-05-28 11:14:00,
2013-05-28 07:20:00,57.1,56.3,30.17,SE,134,0.0,3.0,97,0.00,,,0.06,Wunderground v.1.15,2013-05-28 11:20:00,
2013-05-28 07:25:00,57.2,56.4,30.17,SE,134,0.0,3.0,97,0.00,,,0.06,Wunderground v.1.15,2013-05-28 11:25:00,
2013-05-28 07:32:00,57.3,56.5,30.17,SE,135,0.0,3.0,97,0.00,,,0.06,Wunderground v.1.15,2013-05-28 11:32:00,
2013-05-28 07:38:00,57.3,56.5,30.17,ENE,61,0.0,3.0,97,0.00,,,0.06,Wunderground v.1.15,2013-05-28 11:38:00,
2013-05-28 07:44:00,57.3,56.5,30.17,NE,56,0.0,3.0,97,0.00,,,0.06,Wunderground v.1.15,2013-05-28 11:44:00,
2013-05-28 07:49:00,57.3,56.5,30.17,NE,56,0.0,3.0,97,0.00,,,0.06,Wunderground v.1.15,2013-05-28 11:49:00,
2013-05-28 07:56:00,57.3,56.5,30.17,NE,56,0.0,3.0,97,0.00,,,0.06,Wunderground v.1.15,2013-05-28 11:56:00,
2013-05-28 08:02:00,57.3,56.5,30.17,NE,52,0.0,3.0,97,0.00,,,0.06,Wunderground v.1.15,2013-05-28 12:02:00,
2013-05-28 08:08:00,57.4,56.6,30.17,NE,52,0.0,3.0,97,0.00,,,0.06,Wunderground v.1.15,2013-05-28 12:08:00,
2013-05-28 08:13:00,57.4,56.6,30.18,NE,52,0.0,3.0,97,0.00,,,0.06,Wunderground v.1.15,2013-05-28 12:13:00,
2013-05-28 08:20:00,57.4,56.6,30.17,NE,52,0.0,3.0,97,0.00,,,0.06,Wunderground v.1.15,2013-05-28 12:20:00,
2013-05-28 08:26:00,57.3,56.5,30.17,NE,52,0.0,3.0,97,0.00,,,0.06,Wunderground v.1.15,2013-05-28 12:26:00,
2013-05-28 08:32:00,57.3,56.5,30.17,NE,53,0.0,3.0,97,0.00,,,0.06,Wunderground v.1.15,2013-05-28 12:32:00,
2013-05-28 08:38:00,57.5,56.7,30.17,North,355,0.0,3.0,97,0.00,,,0.06,Wunderground v.1.15,2013-05-28 12:38:00,
2013-05-28 08:44:00,57.8,57.0,30.17,North,355,0.0,3.0,97,0.00,,,0.06,Wunderground v.1.15,2013-05-28 12:44:00,
2013-05-28 08:50:00,58.0,57.2,30.17,North,355,0.0,3.0,97,0.00,,,0.06,Wunderground v.1.15,2013-05-28 12:50:00,
2013-05-28 08:56:00,58.0,56.9,30.16,North,355,0.0,3.0,96,0.00,,,0.06,Wunderground v.1.15,2013-05-28 12:56:00,
2013-05-28 09:01:00,58.3,57.2,30.17,North,355,0.0,3.0,96,0.00,,,0.06,Wunderground v.1.15,2013-05-28 13:01:00,
2013-05-28 09:08:00,58.5,57.4,30.17,North,355,0.0,3.0,96,0.00,,,0.06,Wunderground v.1.15,2013-05-28 13:08:00,
2013-05-28 09:14:00,58.4,56.7,30.17,North,355,0.0,3.0,94,0.00,,,0.06,Wunderground v.1.15,2013-05-28 13:14:00,
2013-05-28 09:20:00,58.5,56.8,30.18,North,355,0.0,3.0,94,0.00,,,0.06,Wunderground v.1.15,2013-05-28 13:20:00,
2013-05-28 09:26:00,58.6,56.9,30.18,North,355,0.0,3.0,94,0.00,,,0.06,Wunderground v.1.15,2013-05-28 13:26:00,
2013-05-28 09:32:00,59.0,57.6,30.19,North,355,0.0,3.0,95,0.00,,,0.06,Wunderground v.1.15,2013-05-28 13:32:00,
2013-05-28 09:38:00,59.0,57.3,30.18,North,355,0.0,3.0,94,0.00,,,0.06,Wunderground v.1.15,2013-05-28 13:38:00,
2013-05-28 09:43:00,59.3,57.6,30.18,NW,319,0.0,3.0,94,0.00,,,0.06,Wunderground v.1.15,2013-05-28 13:43:00,
2013-05-28 09:49:00,59.5,57.2,30.18,NNW,336,0.0,3.0,92,0.00,,,0.06,Wunderground v.1.15,2013-05-28 13:49:00,
2013-05-28 09:56:00,60.0,57.1,30.18,NNW,336,0.0,3.0,90,0.00,,,0.06,Wunderground v.1.15,2013-05-28 13:56:00,
2013-05-28 10:02:00,60.6,58.3,30.18,NNW,336,0.0,3.0,92,0.00,,,0.06,Wunderground v.1.15,2013-05-28 14:02:00,
2013-05-28 10:08:00,60.9,57.6,30.18,NNW,336,0.0,3.0,89,0.00,,,0.06,Wunderground v.1.15,2013-05-28 14:08:00,
2013-05-28 10:14:00,61.3,58.0,30.17,NNW,336,0.0,3.0,89,0.00,,,0.06,Wunderground v.1.15,2013-05-28 14:14:00,
2013-05-28 10:20:00,61.6,58.3,30.17,NNW,336,0.0,3.0,89,0.00,,,0.06,Wunderground v.1.15,2013-05-28 14:20:00,
2013-05-28 10:26:00,61.8,57.9,30.17,NNW,333,0.0,3.0,87,0.00,,,0.06,Wunderground v.1.15,2013-05-28 14:26:00,
2013-05-28 10:31:00,61.9,58.0,30.17,NNW,333,0.0,3.0,87,0.00,,,0.06,Wunderground v.1.15,2013-05-28 14:31:00,
2013-05-28 10:38:00,61.9,58.0,30.16,NNW,330,0.0,3.0,87,0.00,,,0.06,Wunderground v.1.15,2013-05-28 14:38:00,
2013-05-28 10:44:00,62.0,58.4,30.17,NNW,330,0.0,3.0,88,0.00,,,0.06,Wunderground v.1.15,2013-05-28 14:44:00,
2013-05-28 10:49:00,62.0,57.8,30.16,WSW,257,0.0,3.0,86,0.00,,,0.06,Wunderground v.1.15,2013-05-28 14:49:00,
2013-05-28 10:55:00,62.2,58.6,30.16,SW,226,0.0,3.0,88,0.00,,,0.06,Wunderground v.1.15,2013-05-28 14:55:00,
2013-05-28 11:02:00,62.4,59.1,30.16,SW,226,0.0,3.0,89,0.00,,,0.06,Wunderground v.1.15,2013-05-28 15:02:00,
2013-05-28 11:08:00,62.8,59.2,30.16,SW,226,0.0,3.0,88,0.00,,,0.06,Wunderground v.1.15,2013-05-28 15:08:00,
2013-05-28 11:14:00,63.0,59.4,30.16,South,180,0.0,3.0,88,0.00,,,0.06,Wunderground v.1.15,2013-05-28 15:14:00,
2013-05-28 11:19:00,63.4,59.8,30.16,South,182,0.0,3.0,88,0.00,,,0.06,Wunderground v.1.15,2013-05-28 15:19:00,
2013-05-28 11:26:00,63.8,60.2,30.16,South,184,0.0,3.0,88,0.00,,,0.06,Wunderground v.1.15,2013-05-28 15:26:00,
2013-05-28 11:32:00,64.1,60.5,30.16,South,184,0.0,3.0,88,0.00,,,0.06,Wunderground v.1.15,2013-05-28 15:32:00,
2013-05-28 11:39:00,64.4,60.1,30.16,SE,129,0.0,3.0,86,0.00,,,0.06,Wunderground v.1.15,2013-05-28 15:39:00,
2013-05-28 11:46:00,64.7,61.1,30.15,ESE,123,0.0,3.0,88,0.00,,,0.06,Wunderground v.1.15,2013-05-28 15:46:00,
2013-05-28 11:52:00,64.7,60.4,30.15,WSW,243,0.0,3.0,86,0.00,,,0.06,Wunderground v.1.15,2013-05-28 15:52:00,
2013-05-28 11:58:00,65.0,61.0,30.15,WSW,243,0.0,3.0,87,0.00,,,0.06,Wunderground v.1.15,2013-05-28 15:58:00,
2013-05-28 12:04:00,65.4,60.4,30.15,WSW,240,0.0,3.0,84,0.00,,,0.06,Wunderground v.1.15,2013-05-28 16:04:00,
2013-05-28 12:10:00,65.9,60.9,30.15,WSW,238,0.0,3.0,84,0.00,,,0.06,Wunderground v.1.15,2013-05-28 16:10:00,
2013-05-28 12:16:00,66.3,60.6,30.14,SW,233,0.0,3.0,82,0.00,,,0.06,Wunderground v.1.15,2013-05-28 16:16:00,
2013-05-28 12:21:00,66.6,60.6,30.14,SW,233,0.0,3.0,81,0.00,,,0.06,Wunderground v.1.15,2013-05-28 16:21:00,
2013-05-28 12:27:00,66.6,60.2,30.14,SW,233,0.0,3.0,80,0.00,,,0.06,Wunderground v.1.15,2013-05-28 16:27:00,
2013-05-28 12:34:00,66.8,61.5,30.14,SW,233,0.0,3.0,83,0.00,,,0.06,Wunderground v.1.15,2013-05-28 16:34:00,
2013-05-28 12:40:00,67.0,61.7,30.14,SW,233,0.0,3.0,83,0.00,,,0.06,Wunderground v.1.15,2013-05-28 16:40:00,
2013-05-28 12:46:00,67.5,61.5,30.13,SW,232,0.0,3.0,81,0.00,,,0.06,Wunderground v.1.15,2013-05-28 16:46:00,
2013-05-28 12:52:00,68.6,62.2,30.13,SW,228,0.0,3.0,80,0.00,,,0.06,Wunderground v.1.15,2013-05-28 16:52:00,
2013-05-28 12:58:00,69.5,62.7,30.13,SW,228,0.0,3.0,79,0.00,,,0.06,Wunderground v.1.15,2013-05-28 16:58:00,
2013-05-28 13:04:00,69.9,62.4,30.13,SW,228,0.0,3.0,77,0.00,,,0.06,Wunderground v.1.15,2013-05-28 17:04:00,
2013-05-28 13:09:00,69.9,63.1,30.13,NW,304,0.0,3.0,79,0.00,,,0.06,Wunderground v.1.15,2013-05-28 17:09:00,
2013-05-28 13:15:00,70.0,62.1,30.13,NW,317,0.0,3.0,76,0.00,,,0.06,Wunderground v.1.15,2013-05-28 17:15:00,
2013-05-28 13:22:00,70.1,62.6,30.14,NW,317,0.0,3.0,77,0.00,,,0.06,Wunderground v.1.15,2013-05-28 17:22:00,
2013-05-28 13:28:00,70.4,62.5,30.14,NW,317,0.0,3.0,76,0.00,,,0.06,Wunderground v.1.15,2013-05-28 17:28:00,
2013-05-28 13:33:00,70.8,62.5,30.14,South,177,0.0,3.0,75,0.00,,,0.06,Wunderground v.1.15,2013-05-28 17:33:00,
2013-05-28 13:40:00,71.2,63.2,30.14,South,177,0.0,3.0,76,0.00,,,0.06,Wunderground v.1.15,2013-05-28 17:40:00,
2013-05-28 13:46:00,71.8,63.8,30.13,South,180,0.0,3.0,76,0.00,,,0.06,Wunderground v.1.15,2013-05-28 17:46:00,
2013-05-28 13:52:00,72.1,63.7,30.13,South,180,0.0,3.0,75,0.00,,,0.06,Wunderground v.1.15,2013-05-28 17:52:00,
2013-05-28 13:57:00,72.3,64.3,30.14,South,180,0.0,3.0,76,0.00,,,0.06,Wunderground v.1.15,2013-05-28 17:57:00,
2013-05-28 14:03:00,72.7,64.7,30.13,South,179,0.0,3.0,76,0.00,,,0.06,Wunderground v.1.15,2013-05-28 18:03:00,
2013-05-28 14:10:00,73.0,63.4,30.13,South,180,0.0,3.0,72,0.00,,,0.06,Wunderground v.1.15,2013-05-28 18:10:00,
2013-05-28 14:16:00,72.9,64.5,30.13,South,180,0.0,3.0,75,0.00,,,0.06,Wunderground v.1.15,2013-05-28 18:16:00,
2013-05-28 14:21:00,72.8,64.8,30.13,South,179,0.0,3.0,76,0.00,,,0.06,Wunderground v.1.15,2013-05-28 18:21:00,
2013-05-28 14:28:00,72.9,64.5,30.13,South,180,0.0,3.0,75,0.00,,,0.06,Wunderground v.1.15,2013-05-28 18:28:00,
2013-05-28 14:34:00,73.5,64.3,30.13,South,180,0.0,3.0,73,0.00,,,0.06,Wunderground v.1.15,2013-05-28 18:34:00,
2013-05-28 14:40:00,74.2,65.0,30.12,SW,227,0.0,3.0,73,0.00,,,0.06,Wunderground v.1.15,2013-05-28 18:40:00,
2013-05-28 14:46:00,74.3,63.9,30.12,SE,126,0.0,3.0,70,0.00,,,0.06,Wunderground v.1.15,2013-05-28 18:46:00,
2013-05-28 14:52:00,74.2,64.2,30.11,SE,140,1.0,3.0,71,0.00,,,0.06,Wunderground v.1.15,2013-05-28 18:52:00,
2013-05-28 14:58:00,74.3,65.1,30.12,SE,143,0.0,3.0,73,0.00,,,0.06,Wunderground v.1.15,2013-05-28 18:58:00,
2013-05-28 15:03:00,74.6,65.8,30.11,SE,143,0.0,3.0,74,0.00,,,0.06,Wunderground v.1.15,2013-05-28 19:03:00,
2013-05-28 15:09:00,74.9,65.7,30.11,SE,128,0.0,3.0,73,0.00,,,0.06,Wunderground v.1.15,2013-05-28 19:09:00,
2013-05-28 15:16:00,75.1,66.2,30.11,SE,130,0.0,3.0,74,0.00,,,0.06,Wunderground v.1.15,2013-05-28 19:16:00,
2013-05-28 15:22:00,75.2,65.9,30.11,SE,130,0.0,3.0,73,0.00,,,0.06,Wunderground v.1.15,2013-05-28 19:22:00,
2013-05-28 15:28:00,75.5,66.2,30.11,SE,129,0.0,3.0,73,0.00,,,0.06,Wunderground v.1.15,2013-05-28 19:28:00,
2013-05-28 15:34:00,75.6,66.7,30.11,SE,129,0.0,3.0,74,0.00,,,0.06,Wunderground v.1.15,2013-05-28 19:34:00,
2013-05-28 15:40:00,75.8,65.3,30.11,SE,141,0.0,3.0,70,0.00,,,0.06,Wunderground v.1.15,2013-05-28 19:40:00,
2013-05-28 15:46:00,76.0,65.1,30.10,SE,141,0.0,3.0,69,0.00,,,0.06,Wunderground v.1.15,2013-05-28 19:46:00,
2013-05-28 15:51:00,76.0,65.1,30.10,SE,141,0.0,3.0,69,0.00,,,0.06,Wunderground v.1.15,2013-05-28 19:51:00,
2013-05-28 15:58:00,76.2,65.7,30.10,SE,141,0.0,3.0,70,0.00,,,0.06,Wunderground v.1.15,2013-05-28 19:58:00,
2013-05-28 16:04:00,76.2,66.1,30.10,SE,141,0.0,3.0,71,0.00,,,0.06,Wunderground v.1.15,2013-05-28 20:04:00,
2013-05-28 16:10:00,76.4,65.9,30.10,SE,132,0.0,3.0,70,0.00,,,0.06,Wunderground v.1.15,2013-05-28 20:10:00,
2013-05-28 16:16:00,76.2,66.1,30.10,SE,138,0.0,3.0,71,0.00,,,0.06,Wunderground v.1.15,2013-05-28 20:16:00,
2013-05-28 16:22:00,76.1,65.2,30.10,SE,138,0.0,3.0,69,0.00,,,0.06,Wunderground v.1.15,2013-05-28 20:22:00,
2013-05-28 16:28:00,76.2,64.9,30.10,SE,137,0.0,3.0,68,0.00,,,0.06,Wunderground v.1.15,2013-05-28 20:28:00,
2013-05-28 16:34:00,76.3,65.8,30.09,SE,137,0.0,3.0,70,0.00,,,0.06,Wunderground v.1.15,2013-05-28 20:34:00,
2013-05-28 16:39:00,76.5,65.6,30.09,SE,137,0.0,3.0,69,0.00,,,0.06,Wunderground v.1.15,2013-05-28 20:39:00,
2013-05-28 16:46:00,76.7,65.8,30.09,SE,137,0.0,3.0,69,0.00,,,0.06,Wunderground v.1.15,2013-05-28 20:46:00,
2013-05-28 16:52:00,76.8,67.1,30.09,SE,138,0.0,3.0,72,0.00,,,0.06,Wunderground v.1.15,2013-05-28 20:52:00,
2013-05-28 16:58:00,76.8,66.7,30.09,SE,138,0.0,3.0,71,0.00,,,0.06,Wunderground v.1.15,2013-05-28 20:58:00,
2013-05-28 17:03:00,77.0,66.5,30.09,SE,138,0.0,3.0,70,0.00,,,0.06,Wunderground v.1.15,2013-05-28 21:03:00,
2013-05-28 17:10:00,77.2,67.9,30.08,SE,138,0.0,3.0,73,0.00,,,0.06,Wunderground v.1.15,2013-05-28 21:10:00,
2013-05-28 17:16:00,77.4,66.8,30.08,SE,138,0.0,3.0,70,0.00,,,0.06,Wunderground v.1.15,2013-05-28 21:16:00,
2013-05-28 17:22:00,77.8,67.2,30.08,SE,138,0.0,3.0,70,0.00,,,0.06,Wunderground v.1.15,2013-05-28 21:22:00,
2013-05-28 17:27:00,78.1,68.3,30.08,SE,138,0.0,3.0,72,0.00,,,0.06,Wunderground v.1.15,2013-05-28 21:27:00,
2013-05-28 17:34:00,78.2,68.0,30.08,SE,138,0.0,3.0,71,0.00,,,0.06,Wunderground v.1.15,2013-05-28 21:34:00,
2013-05-28 17:40:00,78.3,68.1,30.07,SE,138,0.0,3.0,71,0.00,,,0.06,Wunderground v.1.15,2013-05-28 21:40:00,
2013-05-28 17:46:00,78.2,69.6,30.08,SE,138,0.0,3.0,75,0.00,,,0.06,Wunderground v.1.15,2013-05-28 21:46:00,
2013-05-28 17:51:00,77.8,69.2,30.07,SE,138,0.0,3.0,75,0.00,,,0.06,Wunderground v.1.15,2013-05-28 21:51:00,
2013-05-28 17:58:00,77.6,68.7,30.07,SE,138,0.0,3.0,74,0.00,,,0.06,Wunderground v.1.15,2013-05-28 21:58:00,
2013-05-28 18:04:00,77.6,68.3,30.07,SE,138,0.0,3.0,73,0.00,,,0.06,Wunderground v.1.15,2013-05-28 22:04:00,
2013-05-28 18:10:00,77.6,69.0,30.07,SE,138,0.0,3.0,75,0.00,,,0.06,Wunderground v.1.15,2013-05-28 22:10:00,
2013-05-28 18:15:00,77.5,68.6,30.07,SE,138,0.0,3.0,74,0.00,,,0.06,Wunderground v.1.15,2013-05-28 22:15:00,
2013-05-28 18:22:00,77.5,68.9,30.07,SE,138,0.0,3.0,75,0.00,,,0.06,Wunderground v.1.15,2013-05-28 22:22:00,
2013-05-28 18:28:00,77.7,69.1,30.07,SE,138,0.0,3.0,75,0.00,,,0.06,Wunderground v.1.15,2013-05-28 22:28:00,
2013-05-28 18:34:00,77.6,69.4,30.06,SE,138,0.0,3.0,76,0.00,,,0.06,Wunderground v.1.15,2013-05-28 22:34:00,
2013-05-28 18:39:00,77.3,68.8,30.06,SE,138,0.0,3.0,75,0.00,,,0.06,Wunderground v.1.15,2013-05-28 22:39:00,
2013-05-28 18:46:00,77.1,68.6,30.06,SE,138,0.0,3.0,75,0.00,,,0.06,Wunderground v.1.15,2013-05-28 22:46:00,
2013-05-28 18:52:00,77.1,68.9,30.06,SE,138,0.0,3.0,76,0.00,,,0.06,Wunderground v.1.15,2013-05-28 22:52:00,
2013-05-28 18:58:00,76.9,68.8,30.06,SE,137,0.0,3.0,76,0.00,,,0.06,Wunderground v.1.15,2013-05-28 22:58:00,
2013-05-28 19:03:00,76.7,68.6,30.06,SE,138,0.0,3.0,76,0.00,,,0.06,Wunderground v.1.15,2013-05-28 23:03:00,
2013-05-28 19:10:00,76.6,68.5,30.06,SE,138,0.0,3.0,76,0.00,,,0.06,Wunderground v.1.15,2013-05-28 23:10:00,
2013-05-28 19:16:00,76.4,67.9,30.07,SE,138,0.0,3.0,75,0.00,,,0.06,Wunderground v.1.15,2013-05-28 23:16:00,
2013-05-28 19:22:00,76.3,67.8,30.07,SE,138,0.0,3.0,75,0.00,,,0.06,Wunderground v.1.15,2013-05-28 23:22:00,
2013-05-28 19:27:00,76.2,67.7,30.06,SE,138,0.0,3.0,75,0.00,,,0.06,Wunderground v.1.15,2013-05-28 23:27:00,
2013-05-28 19:34:00,76.2,67.7,30.06,SE,139,0.0,3.0,75,0.00,,,0.06,Wunderground v.1.15,2013-05-28 23:34:00,
2013-05-28 19:40:00,76.0,67.5,30.06,SE,139,0.0,3.0,75,0.00,,,0.06,Wunderground v.1.15,2013-05-28 23:40:00,
2013-05-28 19:46:00,76.0,67.5,30.06,SE,138,0.0,3.0,75,0.00,,,0.06,Wunderground v.1.15,2013-05-28 23:46:00,
2013-05-28 19:51:00,76.0,67.9,30.06,SE,139,0.0,3.0,76,0.00,,,0.06,Wunderground v.1.15,2013-05-28 23:51:00,
2013-05-28 19:58:00,76.0,68.3,30.06,SE,139,0.0,3.0,77,0.00,,,0.06,Wunderground v.1.15,2013-05-28 23:58:00,
2013-05-28 20:04:00,75.7,68.0,30.06,SE,138,0.0,3.0,77,0.00,,,0.06,Wunderground v.1.15,2013-05-29 00:04:00,
2013-05-28 20:10:00,75.4,68.1,30.06,SE,139,0.0,3.0,78,0.00,,,0.06,Wunderground v.1.15,2013-05-29 00:10:00,
2013-05-28 20:15:00,75.2,67.9,30.06,SE,138,0.0,3.0,78,0.00,,,0.06,Wunderground v.1.15,2013-05-29 00:15:00,
2013-05-28 20:22:00,74.9,67.9,30.06,SE,139,0.0,3.0,79,0.00,,,0.06,Wunderground v.1.15,2013-05-29 00:22:00,
2013-05-28 20:28:00,74.5,67.9,30.07,SE,139,0.0,3.0,80,0.00,,,0.06,Wunderground v.1.15,2013-05-29 00:28:00,
2013-05-28 20:34:00,74.3,67.4,30.07,SE,138,0.0,3.0,79,0.00,,,0.06,Wunderground v.1.15,2013-05-29 00:34:00,
2013-05-28 20:39:00,74.3,67.0,30.06,SE,139,0.0,3.0,78,0.00,,,0.06,Wunderground v.1.15,2013-05-29 00:39:00,
2013-05-28 20:46:00,74.2,67.3,30.06,SE,139,0.0,3.0,79,0.00,,,0.06,Wunderground v.1.15,2013-05-29 00:46:00,
2013-05-28 20:52:00,73.9,67.0,30.06,SE,138,0.0,3.0,79,0.00,,,0.06,Wunderground v.1.15,2013-05-29 00:52:00,
2013-05-28 20:58:00,73.5,66.9,30.06,SE,139,0.0,3.0,80,0.00,,,0.06,Wunderground v.1.15,2013-05-29 00:58:00,
2013-05-28 21:03:00,73.2,67.0,30.06,SE,138,0.0,3.0,81,0.00,,,0.06,Wunderground v.1.15,2013-05-29 01:03:00,
2013-05-28 21:10:00,72.8,66.6,30.06,SE,139,0.0,3.0,81,0.00,,,0.06,Wunderground v.1.15,2013-05-29 01:10:00,
2013-05-28 21:16:00,72.4,66.6,30.06,SE,139,0.0,3.0,82,0.00,,,0.06,Wunderground v.1.15,2013-05-29 01:16:00,
2013-05-28 21:22:00,72.1,66.6,30.07,SE,138,0.0,3.0,83,0.00,,,0.06,Wunderground v.1.15,2013-05-29 01:22:00,
2013-05-28 21:27:00,72.0,66.6,30.07,SE,139,0.0,3.0,83,0.00,,,0.06,Wunderground v.1.15,2013-05-29 01:27:00,
2013-05-28 21:34:00,71.8,66.7,30.07,SE,139,0.0,3.0,84,0.00,,,0.06,Wunderground v.1.15,2013-05-29 01:34:00,
2013-05-28 21:40:00,71.3,66.2,30.07,SE,138,0.0,3.0,84,0.00,,,0.06,Wunderground v.1.15,2013-05-29 01:40:00,
2013-05-28 21:46:00,71.0,66.3,30.07,SE,139,0.0,3.0,85,0.00,,,0.06,Wunderground v.1.15,2013-05-29 01:46:00,
2013-05-28 21:51:00,70.6,65.9,30.07,SE,138,0.0,3.0,85,0.00,,,0.06,Wunderground v.1.15,2013-05-29 01:51:00,
2013-05-28 21:58:00,70.3,65.9,30.07,SE,138,0.0,3.0,86,0.00,,,0.06,Wunderground v.1.15,2013-05-29 01:58:00,
2013-05-28 22:04:00,69.8,65.8,30.07,SE,139,0.0,3.0,87,0.00,,,0.06,Wunderground v.1.15,2013-05-29 02:04:00,
2013-05-28 22:10:00,69.3,65.6,30.07,SE,138,0.0,3.0,88,0.00,,,0.06,Wunderground v.1.15,2013-05-29 02:10:00,
2013-05-28 22:16:00,68.9,65.5,30.07,SE,138,0.0,3.0,89,0.00,,,0.06,Wunderground v.1.15,2013-05-29 02:16:00,
2013-05-28 22:22:00,68.5,65.1,30.07,SE,139,0.0,3.0,89,0.00,,,0.06,Wunderground v.1.15,2013-05-29 02:22:00,
2013-05-28 22:28:00,68.1,64.7,30.08,SE,138,0.0,3.0,89,0.00,,,0.06,Wunderground v.1.15,2013-05-29 02:28:00,
2013-05-28 22:34:00,67.9,64.9,30.08,SE,139,0.0,3.0,90,0.00,,,0.06,Wunderground v.1.15,2013-05-29 02:34:00,
2013-05-28 22:39:00,67.6,64.9,30.08,SE,138,0.0,3.0,91,0.00,,,0.06,Wunderground v.1.15,2013-05-29 02:39:00,
2013-05-28 22:46:00,67.3,64.6,30.08,SE,138,0.0,3.0,91,0.00,,,0.06,Wunderground v.1.15,2013-05-29 02:46:00,
2013-05-28 22:52:00,67.1,64.7,30.08,SE,139,0.0,3.0,92,0.00,,,0.06,Wunderground v.1.15,2013-05-29 02:52:00,
2013-05-28 22:57:00,66.9,64.5,30.08,SE,138,0.0,3.0,92,0.00,,,0.06,Wunderground v.1.15,2013-05-29 02:57:00,
2013-05-28 23:04:00,66.7,64.3,30.08,SE,138,0.0,3.0,92,0.00,,,0.06,Wunderground v.1.15,2013-05-29 03:04:00,
2013-05-28 23:10:00,66.4,64.3,30.08,SE,139,0.0,3.0,93,0.00,,,0.06,Wunderground v.1.15,2013-05-29 03:10:00,
2013-05-28 23:16:00,66.1,64.0,30.08,SE,138,0.0,3.0,93,0.00,,,0.06,Wunderground v.1.15,2013-05-29 03:16:00,
2013-05-28 23:21:00,66.0,63.9,30.08,SE,139,0.0,3.0,93,0.00,,,0.06,Wunderground v.1.15,2013-05-29 03:21:00,
2013-05-28 23:27:00,65.8,63.7,30.08,SE,138,0.0,3.0,93,0.00,,,0.06,Wunderground v.1.15,2013-05-29 03:27:00,
2013-05-28 23:34:00,65.7,63.9,30.08,SE,138,0.0,3.0,94,0.00,,,0.06,Wunderground v.1.15,2013-05-29 03:34:00,
2013-05-28 23:40:00,65.5,63.7,30.08,SE,139,0.0,3.0,94,0.00,,,0.06,Wunderground v.1.15,2013-05-29 03:40:00,
2013-05-28 23:45:00,65.3,63.5,30.08,SE,138,0.0,3.0,94,0.00,,,0.06,Wunderground v.1.15,2013-05-29 03:45:00,
2013-05-28 23:52:00,65.1,63.3,30.08,SE,139,0.0,3.0,94,0.00,,,0.06,Wunderground v.1.15,2013-05-29 03:52:00,
2013-05-28 23:58:00,64.9,63.1,30.08,SE,139,0.0,3.0,94,0.00,,,0.06,Wunderground v.1.15,2013-05-29 03:58:00,